GW1010 Weather Reports


Display with metric or nautical units.
time (UTC)temp
F
wind
direction
speed
MPH
gust
MPH
rain 1hr
in
rain 24hr
in
rain mn
in
humidity
%
barometer
mb
20260831163528 59 309 0.0 3.0 0.00 0.00 0.00 78 1015.7
20260831163050 59 294 1.0 3.0 0.00 0.00 0.00 78 1015.8
20260831162531 58 315 0.0 3.0 0.00 0.00 0.00 78 1015.7
20260831162030 58 0 1.0 3.0 0.00 0.00 0.00 79 1015.8
20260831161548 58 329 0.0 3.0 0.00 0.00 0.00 79 1015.9
20260831161033 58 338 1.0 3.0 0.00 0.00 0.00 80 1015.7
20260831160529 57 323 1.0 3.0 0.00 0.00 0.00 80 1015.6
20260831160101 57 0 0.0 5.0 0.00 0.00 0.00 81 1015.6
20260831155532 57 327 2.0 5.0 0.00 0.00 0.00 81 1015.7
20260831155030 57 0 0.0 3.0 0.00 0.00 0.00 82 1015.7
20260831154659 57 318 0.0 3.0 0.00 0.00 0.00 83 1015.7
20260831154030 56 0 0.0 3.0 0.00 0.00 0.00 82 1015.7
20260831153530 56 0 0.0 0.0 0.00 0.00 0.00 83 1015.7
20260831153051 55 0 0.0 0.0 0.00 0.00 0.00 83 1015.7
20260831152528 55 0 0.0 0.0 0.00 0.00 0.00 83 1015.7
20260831152029 55 0 0.0 0.0 0.00 0.00 0.00 84 1015.7
20260831151546 54 0 0.0 0.0 0.00 0.00 0.00 85 1015.6
20260831151031 54 0 0.0 0.0 0.00 0.00 0.00 85 1015.5
20260831150531 54 0 0.0 0.0 0.00 0.00 0.00 85 1015.5
20260831150046 53 0 0.0 0.0 0.00 0.00 0.00 85 1015.6
20260831145531 53 0 0.0 0.0 0.00 0.00 0.00 85 1015.4
20260831145030 53 0 0.0 0.0 0.00 0.00 0.00 87 1015.3
20260831144555 52 0 0.0 0.0 0.00 0.00 0.00 86 1015.1
20260831144028 52 0 0.0 0.0 0.00 0.00 0.00 86 1015.2
20260831143528 52 0 0.0 0.0 0.00 0.00 0.00 86 1015.2
20260831143107 52 0 0.0 0.0 0.00 0.00 0.00 86 1015.2
20260831142532 51 0 0.0 0.0 0.00 0.00 0.00 86 1015.1
20260831142029 51 0 0.0 0.0 0.00 0.00 0.00 86 1015.0
20260831141609 51 0 0.0 0.0 0.00 0.00 0.00 86 1015.0
20260831141028 50 0 0.0 0.0 0.00 0.00 0.00 86 1014.8
20260831140530 50 0 0.0 0.0 0.00 0.00 0.00 86 1014.7
20260831140057 50 0 0.0 0.0 0.00 0.00 0.00 87 1014.6
20260831135528 50 0 0.0 0.0 0.00 0.00 0.00 87 1014.5
20260831135028 49 0 0.0 0.0 0.00 0.00 0.00 86 1014.5
20260831134547 49 0 0.0 0.0 0.00 0.00 0.00 86 1014.5
20260831134029 49 0 0.0 0.0 0.00 0.00 0.00 87 1014.5
20260831133530 49 0 0.0 0.0 0.00 0.00 0.00 87 1014.5
20260831133044 49 0 0.0 0.0 0.00 0.00 0.00 87 1014.4
20260831132528 49 0 0.0 0.0 0.00 0.00 0.00 88 1014.5
20260831132030 48 0 0.0 0.0 0.00 0.00 0.00 88 1014.5
20260831131554 48 0 0.0 0.0 0.00 0.00 0.00 90 1014.5
20260831131029 48 0 0.0 0.0 0.00 0.00 0.00 90 1014.5
20260831130533 47 0 0.0 0.0 0.00 0.00 0.00 90 1014.5
20260831130056 47 0 0.0 0.0 0.00 0.00 0.00 90 1014.6
20260831125530 47 0 0.0 0.0 0.00 0.00 0.00 91 1014.5
20260831125028 46 0 0.0 0.0 0.00 0.00 0.00 90 1014.5
20260831124547 46 0 0.0 0.0 0.00 0.00 0.00 90 1014.4
20260831124033 45 0 0.0 0.0 0.00 0.00 0.00 90 1014.4
20260831123528 45 0 0.0 0.0 0.00 0.00 0.00 91 1014.4
20260831123054 44 0 0.0 0.0 0.00 0.00 0.00 91 1014.3
20260831122529 44 0 0.0 0.0 0.00 0.00 0.00 92 1014.2
20260831122031 44 0 0.0 0.0 0.00 0.00 0.00 92 1014.2
20260831121552 43 0 0.0 0.0 0.00 0.00 0.00 92 1014.2
20260831121028 43 0 0.0 0.0 0.00 0.00 0.00 92 1014.3
20260831120527 43 0 0.0 0.0 0.00 0.00 0.00 92 1014.4
20260831120050 42 0 0.0 0.0 0.00 0.00 0.00 92 1014.3
20260831115530 42 0 0.0 0.0 0.00 0.00 0.00 92 1014.3
20260831115030 42 0 0.0 0.0 0.00 0.00 0.00 92 1014.2
20260831114548 42 0 0.0 0.0 0.00 0.00 0.00 92 1014.1
20260831114026 42 0 0.0 0.0 0.00 0.00 0.00 92 1014.1
20260831113529 43 0 0.0 0.0 0.00 0.00 0.00 92 1014.1
20260831113048 43 0 0.0 0.0 0.00 0.00 0.00 92 1014.2
20260831112526 42 0 0.0 0.0 0.00 0.00 0.00 92 1014.2
20260831112029 43 0 0.0 0.0 0.00 0.00 0.00 91 1014.1
20260831111551 43 0 0.0 0.0 0.00 0.00 0.00 91 1014.2
20260831111029 43 0 0.0 0.0 0.00 0.00 0.00 92 1014.1
20260831110529 44 0 0.0 0.0 0.00 0.00 0.00 92 1014.1
20260831110050 44 0 0.0 0.0 0.00 0.00 0.00 92 1014.1
20260831105529 44 0 0.0 0.0 0.00 0.00 0.00 92 1014.1
20260831105027 44 0 0.0 0.0 0.00 0.00 0.00 92 1014.1
20260831104549 44 0 0.0 0.0 0.00 0.00 0.00 92 1014.1
20260831104026 44 0 0.0 0.0 0.00 0.00 0.00 92 1014.1
20260831103526 44 0 0.0 0.0 0.00 0.00 0.00 92 1014.1
20260831103045 44 0 0.0 0.0 0.00 0.00 0.00 92 1014.0
20260831102527 44 0 0.0 0.0 0.00 0.00 0.00 92 1014.0
20260831102031 44 0 0.0 0.0 0.00 0.00 0.00 91 1013.9
20260831101556 45 0 0.0 0.0 0.00 0.00 0.00 91 1013.9
20260831101032 45 0 0.0 0.0 0.00 0.00 0.00 91 1014.0
20260831100530 45 0 0.0 0.0 0.00 0.00 0.00 91 1014.1
20260831100059 45 0 0.0 0.0 0.00 0.00 0.00 91 1014.1
20260831095525 45 0 0.0 0.0 0.00 0.00 0.00 91 1014.0
20260831095028 45 0 0.0 0.0 0.00 0.00 0.00 90 1014.0
20260831094547 45 0 0.0 0.0 0.00 0.00 0.00 91 1014.0
20260831094029 45 0 0.0 0.0 0.00 0.00 0.00 91 1014.0
20260831093529 45 0 0.0 0.0 0.00 0.00 0.00 91 1014.0
20260831093042 45 0 0.0 0.0 0.00 0.00 0.00 90 1014.1
20260831092529 45 0 0.0 0.0 0.00 0.00 0.00 90 1014.1
20260831092028 45 0 0.0 0.0 0.00 0.00 0.00 90 1014.1
20260831091549 45 0 0.0 0.0 0.00 0.00 0.00 90 1014.1
20260831091031 46 0 0.0 0.0 0.00 0.00 0.00 90 1014.1
20260831090528 46 0 0.0 0.0 0.00 0.00 0.00 90 1014.0
20260831085528 47 0 0.0 0.0 0.00 0.00 0.00 90 1014.0
20260831085030 47 0 0.0 0.0 0.00 0.00 0.00 90 1014.0
20260831084547 47 0 0.0 0.0 0.00 0.00 0.00 90 1014.0
20260831084028 47 0 0.0 0.0 0.00 0.00 0.00 90 1014.0
20260831083524 47 0 0.0 0.0 0.00 0.00 0.00 90 1014.0
20260831083046 47 0 0.0 0.0 0.00 0.00 0.00 89 1014.1
20260831082526 48 0 0.0 0.0 0.00 0.00 0.00 89 1014.1
20260831082029 48 0 0.0 0.0 0.00 0.00 0.00 90 1014.1
20260831081553 48 0 0.0 0.0 0.00 0.00 0.00 90 1014.2
20260831081028 48 0 0.0 0.0 0.00 0.00 0.00 89 1014.2
20260831080529 48 0 0.0 0.0 0.00 0.00 0.00 89 1014.2
20260831080048 48 0 0.0 0.0 0.00 0.00 0.00 88 1014.3
20260831075527 48 0 0.0 0.0 0.00 0.00 0.00 88 1014.3
20260831075027 48 0 0.0 0.0 0.00 0.00 0.00 88 1014.3
20260831074548 49 0 0.0 0.0 0.00 0.00 0.00 87 1014.2
20260831074029 49 0 0.0 0.0 0.00 0.00 0.00 88 1014.3
20260831073531 49 0 0.0 0.0 0.00 0.00 0.00 88 1014.3
20260831073046 50 0 0.0 0.0 0.00 0.00 0.00 90 1014.3
20260831072526 50 0 0.0 0.0 0.00 0.00 0.00 89 1014.3
20260831072033 49 0 0.0 0.0 0.00 0.00 0.00 88 1014.3
20260831071554 50 0 0.0 0.0 0.00 0.00 0.00 87 1014.3
20260831071026 50 0 0.0 0.0 0.00 0.00 0.00 87 1014.2
20260831070526 50 0 0.0 0.0 0.00 0.00 0.00 87 1014.2
20260831070050 50 0 0.0 0.0 0.00 0.00 0.00 87 1014.2
20260831065526 50 0 0.0 0.0 0.00 0.00 0.00 86 1014.3
20260831065027 50 0 0.0 0.0 0.00 0.00 0.00 85 1014.3
20260831064554 50 0 0.0 0.0 0.00 0.00 0.00 84 1014.2
20260831064025 51 0 0.0 0.0 0.00 0.00 0.00 84 1014.2
20260831063524 51 0 0.0 0.0 0.00 0.00 0.00 83 1014.2
20260831063046 52 0 0.0 0.0 0.00 0.00 0.00 86 1014.2
20260831062531 52 0 0.0 0.0 0.00 0.00 0.00 85 1014.1
20260831062030 52 0 0.0 0.0 0.00 0.00 0.00 85 1014.1
20260831061600 53 0 0.0 0.0 0.00 0.00 0.00 84 1014.1
20260831061029 53 0 0.0 0.0 0.00 0.00 0.00 84 1014.2
20260831060528 53 0 0.0 0.0 0.00 0.00 0.00 83 1014.2
20260831055526 54 0 0.0 0.0 0.00 0.00 0.00 82 1014.1
20260831055026 54 0 0.0 0.0 0.00 0.00 0.00 82 1014.0
20260831054550 54 0 0.0 0.0 0.00 0.00 0.00 81 1014.0
20260831054025 55 0 0.0 0.0 0.00 0.00 0.00 81 1014.0
20260831053529 55 0 0.0 0.0 0.00 0.00 0.00 81 1014.0
20260831053043 56 0 0.0 0.0 0.00 0.00 0.00 81 1014.0
20260831052531 56 0 0.0 0.0 0.00 0.00 0.00 81 1014.0
20260831052025 56 0 0.0 0.0 0.00 0.00 0.00 80 1014.1
20260831051605 57 0 0.0 0.0 0.00 0.00 0.00 80 1014.0
20260831051028 57 0 0.0 1.0 0.00 0.00 0.00 79 1014.2
20260831050528 57 0 0.0 2.0 0.00 0.00 0.00 79 1014.1
20260831050051 57 0 0.0 2.0 0.00 0.00 0.00 78 1014.1
20260831045529 58 159 0.0 1.0 0.00 0.00 0.00 78 1014.0
20260831045028 58 0 0.0 2.0 0.00 0.00 0.00 77 1014.0
20260831044547 58 0 0.0 2.0 0.00 0.00 0.00 76 1014.0
20260831044032 58 0 0.0 2.0 0.00 0.00 0.00 76 1014.1
20260831043527 58 174 0.0 2.0 0.00 0.00 0.00 76 1014.1
20260831043049 59 0 0.0 2.0 0.00 0.00 0.00 75 1014.0
20260831042525 59 0 0.0 1.0 0.00 0.00 0.00 74 1014.0
20260831042028 59 271 0.0 1.0 0.00 0.00 0.00 73 1013.9
20260831041601 59 0 0.0 2.0 0.00 0.00 0.00 73 1013.9
20260831041034 59 0 0.0 2.0 0.00 0.00 0.00 72 1013.9
20260831040532 60 0 0.0 2.0 0.00 0.00 0.00 72 1013.9
20260831040047 60 224 0.0 2.0 0.00 0.00 0.00 71 1013.8
20260831035528 60 213 0.0 2.0 0.00 0.00 0.00 71 1013.6
20260831035027 60 0 0.0 1.0 0.00 0.00 0.00 70 1013.5
20260831034558 60 0 0.0 1.0 0.00 0.00 0.00 69 1013.5
20260831034028 60 0 0.0 1.0 0.00 0.00 0.00 68 1013.5
20260831033526 61 0 0.0 0.0 0.00 0.00 0.00 68 1013.4
20260831033045 61 0 0.0 2.0 0.00 0.00 0.00 67 1013.4
20260831032529 61 0 0.0 2.0 0.00 0.00 0.00 67 1013.3
20260831032031 61 0 0.0 1.0 0.00 0.00 0.00 66 1013.2
20260831031551 62 81 0.0 1.0 0.00 0.00 0.00 65 1013.1
20260831031028 62 64 0.0 0.0 0.00 0.00 0.00 65 1013.0
20260831030528 62 0 0.0 2.0 0.00 0.00 0.00 64 1013.0
20260831030106 63 0 0.0 2.0 0.00 0.00 0.00 63 1012.9
20260831025528 63 121 0.0 2.0 0.00 0.00 0.00 63 1012.9
20260831025028 63 0 0.0 3.0 0.00 0.00 0.00 62 1012.9
20260831024610 64 0 0.0 3.0 0.00 0.00 0.00 62 1012.9
20260831024028 64 115 1.0 3.0 0.00 0.00 0.00 61 1012.9
20260831023529 64 211 1.0 4.0 0.00 0.00 0.00 61 1012.9
20260831023047 65 229 1.0 4.0 0.00 0.00 0.00 60 1012.8
20260831022529 65 218 1.0 4.0 0.00 0.00 0.00 60 1012.7
20260831022028 66 181 0.0 3.0 0.00 0.00 0.00 59 1012.7
20260831021550 66 162 0.0 3.0 0.00 0.00 0.00 59 1012.6
20260831021028 67 151 0.0 4.0 0.00 0.00 0.00 58 1012.6
20260831020526 67 208 1.0 4.0 0.00 0.00 0.00 57 1012.6
20260831020049 68 155 2.0 4.0 0.00 0.00 0.00 56 1012.6
20260831015528 69 105 0.0 5.0 0.00 0.00 0.00 54 1012.7
20260831015026 70 203 0.0 8.0 0.00 0.00 0.00 53 1012.7
20260831014547 71 160 2.0 8.0 0.00 0.00 0.00 51 1012.7
20260831014026 72 51 2.0 7.0 0.00 0.00 0.00 49 1012.7
20260831013527 73 152 2.0 6.0 0.00 0.00 0.00 48 1012.7
20260831013110 74 174 1.0 5.0 0.00 0.00 0.00 46 1012.7
20260831012528 75 122 2.0 5.0 0.00 0.00 0.00 44 1012.7
20260831012029 76 101 1.0 4.0 0.00 0.00 0.00 42 1012.7
20260831011550 77 170 0.0 6.0 0.00 0.00 0.00 41 1012.6
20260831011030 78 160 1.0 6.0 0.00 0.00 0.00 38 1012.7
20260831010528 78 213 2.0 6.0 0.00 0.00 0.00 36 1012.7
20260831010049 79 58 1.0 6.0 0.00 0.00 0.00 33 1012.6
20260831005528 79 221 1.0 6.0 0.00 0.00 0.00 34 1012.5
20260831005028 80 263 1.0 4.0 0.00 0.00 0.00 32 1012.5
20260831004546 80 222 1.0 4.0 0.00 0.00 0.00 34 1012.5
20260831004031 80 139 0.0 5.0 0.00 0.00 0.00 34 1012.4
20260831003528 81 271 1.0 5.0 0.00 0.00 0.00 31 1012.4
20260831003058 81 249 1.0 3.0 0.00 0.00 0.00 33 1012.4
20260831002528 81 240 1.0 5.0 0.00 0.00 0.00 32 1012.5
20260831002028 81 249 0.0 5.0 0.00 0.00 0.00 32 1012.5
20260831001541 81 58 1.0 4.0 0.00 0.00 0.00 30 1012.6
20260831001028 81 58 1.0 4.0 0.00 0.00 0.00 33 1012.6
20260831000527 81 238 1.0 4.0 0.00 0.00 0.00 36 1012.6
20260831000048 81 186 1.0 4.0 0.00 0.00 0.00 38 1012.7
20260830235527 81 157 2.0 4.0 0.00 0.00 0.00 39 1012.6
20260830235030 81 165 2.0 4.0 0.00 0.00 0.00 39 1012.7
20260830234547 82 145 1.0 3.0 0.00 0.00 0.00 38 1012.6
20260830234028 82 233 1.0 3.0 0.00 0.00 0.00 38 1012.6
20260830233528 82 249 1.0 4.0 0.00 0.00 0.00 38 1012.7
20260830233046 82 156 1.0 4.0 0.00 0.00 0.00 39 1012.6
20260830232532 83 115 1.0 7.0 0.00 0.00 0.00 37 1012.7
20260830232027 83 129 1.0 7.0 0.00 0.00 0.00 39 1012.7
20260830231548 83 165 2.0 7.0 0.00 0.00 0.00 36 1012.7
20260830231028 83 145 3.0 6.0 0.00 0.00 0.00 36 1012.7
20260830230528 84 72 1.0 4.0 0.00 0.00 0.00 37 1012.7
20260830230045 84 68 1.0 4.0 0.00 0.00 0.00 37 1012.7
20260830225528 84 142 1.0 6.0 0.00 0.00 0.00 36 1012.7
20260830225028 84 255 2.0 6.0 0.00 0.00 0.00 34 1012.7
20260830224553 84 0 1.0 8.0 0.00 0.00 0.00 34 1012.8
20260830224030 84 64 1.0 8.0 0.00 0.00 0.00 32 1012.8
20260830223528 85 201 1.0 6.0 0.00 0.00 0.00 34 1013.0
20260830223048 85 343 2.0 6.0 0.00 0.00 0.00 34 1013.0
20260830222529 85 42 1.0 8.0 0.00 0.00 0.00 34 1013.0
20260830222032 85 235 2.0 8.0 0.00 0.00 0.00 35 1013.0
20260830221549 85 255 1.0 5.0 0.00 0.00 0.00 34 1013.2
20260830221030 85 231 2.0 6.0 0.00 0.00 0.00 34 1013.1
20260830220528 86 266 2.0 6.0 0.00 0.00 0.00 34 1013.1
20260830220044 86 179 2.0 7.0 0.00 0.00 0.00 34 1013.1
20260830215526 86 191 2.0 8.0 0.00 0.00 0.00 35 1013.1
20260830215026 86 342 2.0 8.0 0.00 0.00 0.00 35 1013.2
20260830214551 87 78 2.0 6.0 0.00 0.00 0.00 34 1013.2
20260830214027 87 226 1.0 7.0 0.00 0.00 0.00 34 1013.3
20260830213527 87 221 2.0 7.0 0.00 0.00 0.00 34 1013.3
20260830213047 87 285 2.0 6.0 0.00 0.00 0.00 34 1013.4
20260830212527 88 186 2.0 6.0 0.00 0.00 0.00 33 1013.4
20260830212028 88 227 2.0 6.0 0.00 0.00 0.00 32 1013.4
20260830211542 89 168 2.0 7.0 0.00 0.00 0.00 32 1013.4
20260830211031 89 195 2.0 8.0 0.00 0.00 0.00 32 1013.4
20260830210534 89 180 2.0 8.0 0.00 0.00 0.00 32 1013.4
20260830210051 89 166 1.0 4.0 0.00 0.00 0.00 31 1013.4
20260830205529 89 246 1.0 5.0 0.00 0.00 0.00 31 1013.4
20260830205028 89 234 1.0 5.0 0.00 0.00 0.00 32 1013.4
20260830204549 89 110 1.0 4.0 0.00 0.00 0.00 33 1013.4
20260830204026 89 219 1.0 4.0 0.00 0.00 0.00 33 1013.4
20260830203526 89 281 2.0 4.0 0.00 0.00 0.00 34 1013.3
20260830203100 88 129 2.0 6.0 0.00 0.00 0.00 34 1013.4
20260830202528 87 296 1.0 6.0 0.00 0.00 0.00 28 1013.4
20260830202028 87 305 2.0 4.0 0.00 0.00 0.00 29 1013.4
20260830201549 87 195 1.0 4.0 0.00 0.00 0.00 28 1013.6
20260830201028 86 170 1.0 4.0 0.00 0.00 0.00 29 1013.5
20260830200531 86 245 1.0 4.0 0.00 0.00 0.00 28 1013.6
20260830200048 85 188 0.0 3.0 0.00 0.00 0.00 29 1013.6
20260830195528 85 188 1.0 4.0 0.00 0.00 0.00 29 1013.6
20260830195027 85 188 1.0 4.0 0.00 0.00 0.00 29 1013.8
20260830194555 84 195 0.0 5.0 0.00 0.00 0.00 30 1013.9
20260830194027 83 0 1.0 5.0 0.00 0.00 0.00 30 1013.9
20260830193529 83 0 0.0 3.0 0.00 0.00 0.00 32 1014.0
20260830193047 82 0 1.0 3.0 0.00 0.00 0.00 32 1014.1
20260830192528 81 333 1.0 3.0 0.00 0.00 0.00 32 1014.3
20260830192031 81 330 1.0 4.0 0.00 0.00 0.00 31 1014.3
20260830191547 80 0 1.0 5.0 0.00 0.00 0.00 33 1014.4
20260830191027 79 333 1.0 5.0 0.00 0.00 0.00 33 1014.4
20260830190527 79 322 1.0 4.0 0.00 0.00 0.00 34 1014.5
20260830190046 79 0 2.0 4.0 0.00 0.00 0.00 34 1014.5
20260830185529 78 327 1.0 4.0 0.00 0.00 0.00 37 1014.6
20260830185027 77 344 0.0 4.0 0.00 0.00 0.00 38 1014.7
20260830184554 76 318 1.0 5.0 0.00 0.00 0.00 39 1014.8
20260830184031 76 316 1.0 5.0 0.00 0.00 0.00 39 1014.9
20260830183526 76 322 0.0 4.0 0.00 0.00 0.00 41 1015.0
20260830183055 75 236 1.0 4.0 0.00 0.00 0.00 41 1015.0
20260830182529 75 241 1.0 4.0 0.00 0.00 0.00 41 1015.1
20260830182030 74 331 0.0 4.0 0.00 0.00 0.00 43 1015.2
20260830181556 73 343 1.0 4.0 0.00 0.00 0.00 45 1015.2
20260830181031 73 316 1.0 4.0 0.00 0.00 0.00 45 1015.2
20260830180526 73 327 2.0 5.0 0.00 0.00 0.00 46 1015.3
20260830180058 73 329 2.0 5.0 0.00 0.00 0.00 47 1015.3
20260830175529 73 0 0.0 3.0 0.00 0.00 0.00 49 1015.3
20260830175028 72 341 1.0 2.0 0.00 0.00 0.00 48 1015.3
20260830174559 71 245 0.0 3.0 0.00 0.00 0.00 50 1015.4
20260830174030 71 0 0.0 3.0 0.00 0.00 0.00 51 1015.3
20260830173531 70 318 1.0 3.0 0.00 0.00 0.00 51 1015.3
20260830173105 70 235 1.0 3.0 0.00 0.00 0.00 51 1015.3
20260830172528 70 226 1.0 3.0 0.00 0.00 0.00 52 1015.3
20260830172031 70 326 1.0 3.0 0.00 0.00 0.00 52 1015.4
20260830171545 69 0 0.0 2.0 0.00 0.00 0.00 55 1015.4
20260830171030 69 0 0.0 2.0 0.00 0.00 0.00 57 1015.4
20260830170527 68 0 0.0 1.0 0.00 0.00 0.00 59 1015.4
20260830170046 67 260 0.0 2.0 0.00 0.00 0.00 62 1015.4
20260830165527 66 0 0.0 3.0 0.00 0.00 0.00 63 1015.5
20260830165027 65 264 0.0 3.0 0.00 0.00 0.00 64 1015.5
20260830164607 65 0 0.0 2.0 0.00 0.00 0.00 66 1015.5
20260830164028 64 0 0.0 2.0 0.00 0.00 0.00 67 1015.7